Time,TemperatureF,DewpointF,PressureIn,WindDirection,WindDirectionDegrees,WindSpeedMPH,WindSpeedGustMPH,Humidity,HourlyPrecipIn,Conditions,Clouds,dailyrainin,SolarRadiationWatts/m^2,SoftwareType,DateUTC
2013-02-15 00:13:00,71.1,-99.9,30.03,East,92,0.0,2.0,0,0.00,,,0.00,0,weatherlink.com 1.10,2013-02-15 04:13:00,
2013-02-15 00:28:00,71.1,-99.9,30.02,East,92,0.0,2.0,0,0.00,,,0.00,0,weatherlink.com 1.10,2013-02-15 04:28:00,
2013-02-15 00:43:00,70.9,-99.9,30.02,East,92,1.0,2.0,0,0.00,,,0.00,0,weatherlink.com 1.10,2013-02-15 04:43:00,
2013-02-15 00:58:00,71.0,-99.9,30.02,ESE,106,0.0,3.0,0,0.00,,,0.00,0,weatherlink.com 1.10,2013-02-15 04:58:00,
2013-02-15 01:13:00,71.1,-99.9,30.02,ESE,106,0.0,1.0,0,0.00,,,0.00,0,weatherlink.com 1.10,2013-02-15 05:13:00,
2013-02-15 01:29:00,70.9,-99.9,30.02,ESE,106,0.0,2.0,0,0.00,,,0.00,0,weatherlink.com 1.10,2013-02-15 05:29:00,
2013-02-15 01:44:00,70.1,-99.9,30.02,ESE,106,0.0,0.0,0,0.00,,,0.00,0,weatherlink.com 1.10,2013-02-15 05:44:00,
2013-02-15 01:59:00,70.0,-99.9,30.01,ESE,107,0.0,2.0,0,0.00,,,0.00,0,weatherlink.com 1.10,2013-02-15 05:59:00,
2013-02-15 02:14:00,69.9,-99.9,30.00,ESE,106,0.0,2.0,0,0.00,,,0.00,0,weatherlink.com 1.10,2013-02-15 06:14:00,
2013-02-15 02:29:00,69.7,-99.9,30.00,ESE,106,2.0,2.0,0,0.00,,,0.00,0,weatherlink.com 1.10,2013-02-15 06:29:00,
2013-02-15 02:44:00,69.9,-99.9,29.99,ESE,107,0.0,2.0,0,0.00,,,0.00,0,weatherlink.com 1.10,2013-02-15 06:44:00,
2013-02-15 02:59:00,70.1,-99.9,29.99,ESE,106,2.0,2.0,0,0.00,,,0.00,0,weatherlink.com 1.10,2013-02-15 06:59:00,
2013-02-15 03:14:00,70.3,-99.9,29.99,ESE,106,1.0,4.0,0,0.00,,,0.00,0,weatherlink.com 1.10,2013-02-15 07:14:00,
2013-02-15 03:29:00,70.2,-99.9,29.99,ESE,117,0.0,1.0,0,0.00,,,0.00,0,weatherlink.com 1.10,2013-02-15 07:29:00,
2013-02-15 03:45:00,69.8,-99.9,29.99,East,98,1.0,3.0,0,0.00,,,0.00,0,weatherlink.com 1.10,2013-02-15 07:45:00,
2013-02-15 03:59:00,69.6,-99.9,29.99,East,98,0.0,2.0,0,0.00,,,0.00,0,weatherlink.com 1.10,2013-02-15 07:59:00,
2013-02-15 04:14:00,69.7,-99.9,29.99,East,98,0.0,1.0,0,0.00,,,0.00,0,weatherlink.com 1.10,2013-02-15 08:14:00,
2013-02-15 04:29:00,70.1,-99.9,30.00,South,178,0.0,5.0,0,0.00,,,0.00,0,weatherlink.com 1.10,2013-02-15 08:29:00,
2013-02-15 04:44:00,70.2,-99.9,29.99,SSE,157,2.0,5.0,0,0.00,,,0.00,0,weatherlink.com 1.10,2013-02-15 08:44:00,
2013-02-15 05:00:00,69.1,-99.9,30.00,ENE,74,0.0,3.0,0,0.00,,,0.00,0,weatherlink.com 1.10,2013-02-15 09:00:00,
2013-02-15 05:30:00,69.7,-99.9,30.00,ENE,59,0.0,3.0,0,0.00,,,0.00,0,weatherlink.com 1.10,2013-02-15 09:30:00,
2013-02-15 05:45:00,69.5,-99.9,30.00,ENE,59,0.0,2.0,0,0.00,,,0.00,0,weatherlink.com 1.10,2013-02-15 09:45:00,
2013-02-15 06:00:00,69.3,-99.9,30.01,South,173,1.0,3.0,0,0.00,,,0.00,0,weatherlink.com 1.10,2013-02-15 10:00:00,
2013-02-15 06:15:00,69.1,-99.9,30.01,South,173,0.0,1.0,0,0.00,,,0.00,0,weatherlink.com 1.10,2013-02-15 10:15:00,
2013-02-15 06:30:00,69.5,-99.9,30.02,South,172,0.0,3.0,0,0.01,,,0.01,0,weatherlink.com 1.10,2013-02-15 10:30:00,
2013-02-15 06:45:00,69.5,-99.9,30.02,South,173,0.0,1.0,0,0.01,,,0.01,0,weatherlink.com 1.10,2013-02-15 10:45:00,
2013-02-15 07:00:00,69.4,-99.9,30.03,South,172,0.0,2.0,0,0.01,,,0.01,11,weatherlink.com 1.10,2013-02-15 11:00:00,
2013-02-15 07:16:00,69.8,-99.9,30.03,ESE,111,1.0,6.0,0,0.01,,,0.01,26,weatherlink.com 1.10,2013-02-15 11:16:00,
2013-02-15 07:30:00,70.6,-99.9,30.04,ENE,60,0.0,6.0,0,0.00,,,0.01,81,weatherlink.com 1.10,2013-02-15 11:30:00,
2013-02-15 07:45:00,71.7,-99.9,30.04,ESE,110,2.0,7.0,0,0.00,,,0.01,120,weatherlink.com 1.10,2013-02-15 11:45:00,
2013-02-15 08:01:00,72.9,-99.9,30.05,SE,140,1.0,5.0,0,0.00,,,0.00,186,weatherlink.com 1.10,2013-02-15 12:01:00,
2013-02-15 08:15:00,73.8,-99.9,30.05,SE,130,2.0,7.0,0,0.00,,,0.00,239,weatherlink.com 1.10,2013-02-15 12:15:00,
2013-02-15 08:31:00,74.4,-99.9,30.05,ENE,69,2.0,10.0,0,0.00,,,0.00,299,weatherlink.com 1.10,2013-02-15 12:31:00,
2013-02-15 08:46:00,75.0,-99.9,30.06,East,82,5.0,11.0,0,0.00,,,0.00,359,weatherlink.com 1.10,2013-02-15 12:46:00,
2013-02-15 09:01:00,75.4,-99.9,30.06,ESE,121,0.0,7.0,0,0.00,,,0.00,438,weatherlink.com 1.10,2013-02-15 13:01:00,
2013-02-15 09:16:00,76.3,-99.9,30.06,East,85,3.0,7.0,0,0.00,,,0.00,497,weatherlink.com 1.10,2013-02-15 13:16:00,
2013-02-15 09:31:00,76.8,-99.9,30.07,East,94,2.0,9.0,0,0.00,,,0.00,568,weatherlink.com 1.10,2013-02-15 13:31:00,
2013-02-15 09:46:00,76.8,-99.9,30.07,SE,137,0.0,9.0,0,0.00,,,0.00,587,weatherlink.com 1.10,2013-02-15 13:46:00,
2013-02-15 10:01:00,77.7,-99.9,30.07,ENE,58,5.0,8.0,0,0.00,,,0.00,663,weatherlink.com 1.10,2013-02-15 14:01:00,
2013-02-15 10:16:00,79.4,-99.9,30.07,SE,126,4.0,10.0,0,0.00,,,0.00,717,weatherlink.com 1.10,2013-02-15 14:16:00,
2013-02-15 10:31:00,78.9,-99.9,30.07,East,82,0.0,11.0,0,0.00,,,0.00,715,weatherlink.com 1.10,2013-02-15 14:31:00,
2013-02-15 10:46:00,80.3,-99.9,30.07,East,86,2.0,5.0,0,0.00,,,0.00,770,weatherlink.com 1.10,2013-02-15 14:46:00,
2013-02-15 11:01:00,80.4,-99.9,30.07,SSE,168,0.0,8.0,0,0.00,,,0.00,844,weatherlink.com 1.10,2013-02-15 15:01:00,
2013-02-15 11:17:00,80.6,-2.0,30.05,ESE,119,5.0,13.0,4,0.00,,,0.00,202,weatherlink.com 1.10,2013-02-15 15:17:00,
2013-02-15 11:31:00,79.1,-99.9,30.05,ESE,123,0.0,8.0,0,0.00,,,0.00,473,weatherlink.com 1.10,2013-02-15 15:31:00,
2013-02-15 11:46:00,79.9,27.0,30.05,ENE,78,5.0,11.0,14,0.00,,,0.00,1007,weatherlink.com 1.10,2013-02-15 15:46:00,
2013-02-15 12:02:00,80.6,33.0,30.04,ESE,117,4.0,12.0,18,0.00,,,0.00,178,weatherlink.com 1.10,2013-02-15 16:02:00,
2013-02-15 12:17:00,80.0,-29.0,30.04,WSW,252,3.0,12.0,1,0.00,,,0.00,230,weatherlink.com 1.10,2013-02-15 16:17:00,
2013-02-15 12:32:00,81.6,35.0,30.03,ENE,77,9.0,10.0,19,0.00,,,0.00,928,weatherlink.com 1.10,2013-02-15 16:32:00,
2013-02-15 12:47:00,79.8,19.0,30.02,East,91,13.0,13.0,10,0.00,,,0.00,176,weatherlink.com 1.10,2013-02-15 16:47:00,
2013-02-15 13:02:00,79.7,38.0,30.02,ESE,115,1.0,8.0,22,0.00,,,0.00,315,weatherlink.com 1.10,2013-02-15 17:02:00,
2013-02-15 13:17:00,82.2,47.0,30.01,WSW,240,4.0,10.0,29,0.00,,,0.00,1039,weatherlink.com 1.10,2013-02-15 17:17:00,
2013-02-15 13:32:00,81.0,52.0,30.01,East,91,8.0,18.0,36,0.00,,,0.00,1020,weatherlink.com 1.10,2013-02-15 17:32:00,
2013-02-15 13:47:00,81.7,50.0,30.00,ENE,65,0.0,9.0,33,0.00,,,0.00,962,weatherlink.com 1.10,2013-02-15 17:47:00,
2013-02-15 14:02:00,80.7,47.0,29.99,ESE,123,7.0,13.0,30,0.00,,,0.00,886,weatherlink.com 1.10,2013-02-15 18:02:00,
2013-02-15 14:17:00,82.3,47.0,29.98,East,92,1.0,8.0,29,0.00,,,0.00,935,weatherlink.com 1.10,2013-02-15 18:17:00,
2013-02-15 14:32:00,81.1,47.0,29.98,ESE,104,7.0,15.0,30,0.00,,,0.00,139,weatherlink.com 1.10,2013-02-15 18:32:00,
2013-02-15 14:47:00,81.2,34.0,29.97,SE,146,4.0,10.0,18,0.00,,,0.00,807,weatherlink.com 1.10,2013-02-15 18:47:00,
2013-02-15 15:02:00,81.2,49.0,29.97,ESE,104,7.0,11.0,33,0.00,,,0.00,134,weatherlink.com 1.10,2013-02-15 19:02:00,
2013-02-15 15:18:00,80.0,48.0,29.96,South,184,10.0,12.0,33,0.00,,,0.00,142,weatherlink.com 1.10,2013-02-15 19:18:00,
2013-02-15 15:33:00,79.3,31.0,29.97,SE,135,3.0,12.0,17,0.00,,,0.00,649,weatherlink.com 1.10,2013-02-15 19:33:00,
2013-02-15 15:48:00,79.6,30.0,29.96,ESE,103,5.0,10.0,16,0.00,,,0.00,134,weatherlink.com 1.10,2013-02-15 19:48:00,
2013-02-15 16:03:00,78.5,34.0,29.96,ESE,113,4.0,10.0,20,0.00,,,0.00,524,weatherlink.com 1.10,2013-02-15 20:03:00,
2013-02-15 16:18:00,79.3,34.0,29.96,ESE,115,2.0,14.0,19,0.00,,,0.00,464,weatherlink.com 1.10,2013-02-15 20:18:00,
2013-02-15 16:33:00,79.6,32.0,29.96,East,95,6.0,14.0,18,0.00,,,0.00,471,weatherlink.com 1.10,2013-02-15 20:33:00,
2013-02-15 16:48:00,78.8,26.0,29.96,East,92,5.0,13.0,14,0.00,,,0.00,295,weatherlink.com 1.10,2013-02-15 20:48:00,
2013-02-15 17:03:00,78.4,-99.9,29.96,ESE,113,4.0,10.0,0,0.00,,,0.00,290,weatherlink.com 1.10,2013-02-15 21:03:00,
2013-02-15 17:18:00,78.4,-99.9,29.97,SSE,161,1.0,8.0,0,0.00,,,0.00,234,weatherlink.com 1.10,2013-02-15 21:18:00,
2013-02-15 17:33:00,78.0,-99.9,29.97,South,178,2.0,10.0,0,0.00,,,0.00,121,weatherlink.com 1.10,2013-02-15 21:33:00,
2013-02-15 17:48:00,76.7,-99.9,29.97,South,171,3.0,8.0,0,0.00,,,0.00,63,weatherlink.com 1.10,2013-02-15 21:48:00,
2013-02-15 18:04:00,75.9,-99.9,29.98,South,175,0.0,6.0,0,0.00,,,0.00,84,weatherlink.com 1.10,2013-02-15 22:04:00,
2013-02-15 18:18:00,75.6,-99.9,29.98,SSE,150,4.0,10.0,0,0.00,,,0.00,16,weatherlink.com 1.10,2013-02-15 22:18:00,
2013-02-15 18:34:00,73.5,-99.9,29.98,East,96,3.0,8.0,0,0.00,,,0.00,0,weatherlink.com 1.10,2013-02-15 22:34:00,
2013-02-15 18:49:00,72.8,-99.9,29.98,SE,130,1.0,8.0,0,0.00,,,0.00,0,weatherlink.com 1.10,2013-02-15 22:49:00,
2013-02-15 19:19:00,72.3,-99.9,29.99,SE,134,0.0,5.0,0,0.00,,,0.00,0,weatherlink.com 1.10,2013-02-15 23:19:00,
2013-02-15 19:34:00,72.2,-99.9,29.99,SE,134,0.0,5.0,0,0.00,,,0.00,0,weatherlink.com 1.10,2013-02-15 23:34:00,
2013-02-15 19:49:00,72.1,-99.9,30.00,SSW,192,2.0,8.0,0,0.00,,,0.00,0,weatherlink.com 1.10,2013-02-15 23:49:00,
2013-02-15 20:04:00,71.8,-99.9,30.00,SE,142,1.0,6.0,0,0.00,,,0.00,0,weatherlink.com 1.10,2013-02-16 00:04:00,
2013-02-15 20:19:00,71.7,-99.9,30.00,SE,137,0.0,6.0,0,0.00,,,0.00,0,weatherlink.com 1.10,2013-02-16 00:19:00,
2013-02-15 20:34:00,71.5,-99.9,30.01,East,94,2.0,3.0,0,0.00,,,0.00,0,weatherlink.com 1.10,2013-02-16 00:34:00,
2013-02-15 20:49:00,71.5,-99.9,30.01,SSE,152,1.0,4.0,0,0.00,,,0.00,0,weatherlink.com 1.10,2013-02-16 00:49:00,
2013-02-15 21:05:00,71.5,-99.9,30.01,East,90,3.0,7.0,0,0.00,,,0.00,0,weatherlink.com 1.10,2013-02-16 01:05:00,
2013-02-15 21:19:00,71.4,-99.9,30.02,SE,141,0.0,3.0,0,0.00,,,0.00,0,weatherlink.com 1.10,2013-02-16 01:19:00,
2013-02-15 21:34:00,71.6,-99.9,30.02,SSE,159,0.0,4.0,0,0.00,,,0.00,0,weatherlink.com 1.10,2013-02-16 01:34:00,
2013-02-15 21:49:00,71.8,-99.9,30.02,East,92,1.0,9.0,0,0.00,,,0.00,0,weatherlink.com 1.10,2013-02-16 01:49:00,
2013-02-15 22:05:00,71.7,-99.9,30.02,SE,145,1.0,8.0,0,0.00,,,0.00,0,weatherlink.com 1.10,2013-02-16 02:05:00,
2013-02-15 22:20:00,71.4,-99.9,30.02,ENE,71,0.0,3.0,0,0.00,,,0.00,0,weatherlink.com 1.10,2013-02-16 02:20:00,
2013-02-15 22:35:00,71.2,-99.9,30.02,NE,51,1.0,3.0,0,0.00,,,0.00,0,weatherlink.com 1.10,2013-02-16 02:35:00,
2013-02-15 22:50:00,71.1,-99.9,30.02,East,84,1.0,3.0,0,0.00,,,0.00,0,weatherlink.com 1.10,2013-02-16 02:50:00,
2013-02-15 23:05:00,71.1,-99.9,30.01,East,86,0.0,3.0,0,0.00,,,0.00,0,weatherlink.com 1.10,2013-02-16 03:05:00,
2013-02-15 23:20:00,71.2,-99.9,30.01,SSE,168,0.0,5.0,0,0.00,,,0.00,0,weatherlink.com 1.10,2013-02-16 03:20:00,
2013-02-15 23:35:00,70.9,-99.9,30.02,SSE,168,1.0,2.0,0,0.00,,,0.00,0,weatherlink.com 1.10,2013-02-16 03:35:00,
2013-02-15 23:50:00,70.7,-99.9,30.02,SSE,168,0.0,1.0,0,0.00,,,0.00,0,weatherlink.com 1.10,2013-02-16 03:50:00,